This demonstration page uses our WeatherBlox Daily Observations layout. Learn more.

Left ArrowRight Arrow

38.89511, -77.03637

Hourly Observations for August 24, 2021

Temp ( °F °C ) Dew Point ( °F °C ) Humidity (%) Winds ( mph kmh ) Pressure ( in mb ) Visibility ( mi km ) Precip ( " mm )
12:52 am 00:52 Mostly Cloudy 80 26.7 72 22.2 76 76 WSW 5 7 29.92 1013 10 16 0.00 0.00
1:52 am 01:52 Mostly Cloudy 81 27.2 70 21.1 69 69 WNW 6 9 29.92 1013 10 16 0.00 0.00
2:52 am 02:52 Mostly Cloudy 81 27.2 70 21.1 69 69 WNW 6 9 29.92 1013 10 16 0.00 0.00
3:52 am 03:52 Mostly Cloudy 78 25.6 70 21.1 76 76 NNW 7 11 29.93 1014 10 16 0.00 0.00
4:52 am 04:52 Mostly Cloudy 77 25 70 21.1 79 79 NNW 9 15 29.93 1014 10 16 0.00 0.00
5:52 am 05:52 Partly Cloudy 76 24.4 70 21.1 82 82 N 5 7 29.95 1014 10 16 0.00 0.00
6:52 am 06:52 Mostly Sunny 77 25 69 20.6 77 77 NNW 3 6 29.97 1015 10 16 0.00 0.00
7:52 am 07:52 Mostly Sunny 79 26.1 71 21.7 77 77 N 6 9 29.99 1016 10 16 0.00 0.00
8:52 am 08:52 Mostly Sunny 82 27.8 70 21.1 67 67 NNW 12 19 30.01 1016 10 16 0.00 0.00
9:52 am 09:52 Mostly Sunny 84 28.9 70 21.1 63 63 NNW 12 19 30.02 1017 10 16 0.00 0.00
10:52 am 10:52 Mostly Cloudy 85 29.4 73 22.8 68 68 N 6 9 30.03 1017 10 16 0.00 0.00
11:52 am 11:52 Mostly Cloudy 86 30 75 23.9 70 70 N 6 9 30.03 1017 10 16 0.00 0.00
12:52 pm 12:52 Mostly Sunny 89 31.7 74 23.3 61 61 NNE 7 11 30.02 1017 10 16 0.00 0.00
1:52 pm 13:52 Mostly Sunny N/A N/A N/A NNE 6 9 N/A 10 16 0.00 0.00
2:52 pm 14:52 Mostly Sunny 90 32.2 65 18.3 44 44 NNE 7 11 30.00 1016 10 16 0.00 0.00
3:52 pm 15:52 Partly Cloudy 93 33.9 66 18.9 41 41 N 8 13 29.99 1016 10 16 0.00 0.00
4:52 pm 16:52 Partly Cloudy 92 33.3 66 18.9 43 43 N 9 15 29.98 1015 10 16 0.00 0.00
5:52 pm 17:52 Partly Cloudy 91 32.8 66 18.9 44 44 N 10 17 29.98 1015 10 16 0.00 0.00
6:52 pm 18:52 Mostly Sunny 89 31.7 66 18.9 47 47 N 12 19 29.99 1016 10 16 0.00 0.00
7:52 pm 19:52 Mostly Clear 87 30.6 64 17.8 46 46 N 14 22 30.00 1016 10 16 0.00 0.00
8:52 pm 20:52 Mostly Clear 83 28.3 68 20 61 61 N 16 26 30.02 1017 10 16 0.00 0.00
9:52 pm 21:52 Mostly Clear 83 28.3 71 21.7 67 67 N 8 13 30.03 1017 10 16 0.00 0.00
10:52 pm 22:52 Mostly Clear 81 27.2 71 21.7 72 72 N 7 11 30.04 1017 10 16 0.00 0.00
11:52 pm 23:52 Mostly Clear 81 27.2 72 22.2 74 74 WSW 5 7 30.05 1018 10 16 0.00 0.00

Powered by AerisWeather